Overview Statistics Trail Chart Weather Telemetry Raw packets
 

This is the latest recevied weather packets stored in our database for station/object WA6OOO. If no packets are shown the sender has not sent any weather packets the latest 10 day(s).

<< 108 109 110 111 112 113 114 >>
Time Temp. Humidity Pressure Rain* Wind** Luminosity Snow
1787854833 27.22° C 67% 1016.8 hPa 0 mm - 218 W/m² -
1787854531 27.22° C 66% 1016.8 hPa 0 mm - 196 W/m² -
1787854227 26.67° C 66% 1016.7 hPa 0 mm - 186 W/m² -
1787853927 26.67° C 68% 1016.5 hPa 0 mm - 205 W/m² -
1787853627 26.11° C 69% 1016.8 hPa 0 mm - 244 W/m² -
1787853325 26.11° C 71% 1017 hPa 0 mm - 248 W/m² -
1787853021 26.67° C 71% 1017.3 hPa 0 mm - 291 W/m² -
1787852715 26.67° C 68% 1017 hPa 0 mm - 388 W/m² -
1787852414 26.67° C 69% 1016.8 hPa 0 mm - 345 W/m² -
1787852115 26.11° C 70% 1016.6 hPa 0 mm - 334 W/m² -
1787851809 25.56° C 72% 1016.4 hPa 0 mm - 259 W/m² -
1787851503 25.56° C 74% 1016.4 hPa 0 mm - 213 W/m² -
1787851197 25.56° C 74% 1016.9 hPa 0 mm - 246 W/m² -
1787850894 25° C 74% 1016.7 hPa 0 mm - 299 W/m² -
1787850590 25° C 76% 1016.7 hPa 0 mm - 270 W/m² -
1787850289 25° C 76% 1016.8 hPa 0 mm - 274 W/m² -
1787849989 24.44° C 77% 1016.6 hPa 0 mm - 307 W/m² -
1787849684 24.44° C 78% 1016.7 hPa 0 mm - 230 W/m² -
1787849379 24.44° C 79% 1016.6 hPa 0 mm - 211 W/m² -
1787849078 24.44° C 79% 1016.9 hPa 0 mm - 169 W/m² -
1787848773 24.44° C 78% 1016.6 hPa 0 mm - 141 W/m² -
1787848466 25° C 75% 1016.6 hPa 0 mm - 133 W/m² -
1787848161 25.56° C 68% 1016.2 hPa 0 mm - 112 W/m² -
1787847855 25.56° C 66% 1016.3 hPa 0 mm - 94 W/m² -
1787847551 26.67° C 60% 1016.2 hPa 0 mm - 78 W/m² -

* Rain latest hour (hover to see other rain measurements)
** Current wind speed in m/s (hover to see current wind gust speed)